Hourly Data Report for December 20, 2002

TORONTO CITY
ONTARIO

43°40'00.000" N
79°24'00.000" W
112.50 m
6158355
71508
XTO

Download Data

Hourly Data (December 2002)
Hourly Data Report for December 20, 2002
TIME
LST
Temp Definition
°C
Dew Point Definition
°C
Rel Hum Definition
%
Precip. Amount Definition
mm

Wind Dir Definition
10's deg

Wind Spd Definition
km/h
Visibility Definition
km
Stn Press Definition
kPa
Hmdx Definition


Wind Chill Definition


Weather Definition


00:00 6.6 5.7 94   LegendMM LegendMM LegendMM 98.38     LegendNANA
01:00 6.3 5.7 96   LegendMM LegendMM LegendMM 98.15     LegendNANA
02:00 6.1 5.5 96   LegendMM LegendMM LegendMM 98.00     LegendNANA
03:00 6.0 5.6 97   LegendMM LegendMM LegendMM 97.89     LegendNANA
04:00 6.2 5.8 97   LegendMM LegendMM LegendMM 97.76     LegendNANA
05:00 6.7 6.4 98   LegendMM LegendMM LegendMM 97.66     LegendNANA
06:00 8.1 7.8 98   LegendMM LegendMM LegendMM 97.63     LegendNANA
07:00 6.7 5.7 93   LegendMM LegendMM LegendMM 97.77     LegendNANA
08:00 5.0 2.0 81   LegendMM LegendMM LegendMM 98.00     LegendNANA
09:00 4.0 0.9 80   LegendMM LegendMM LegendMM 98.18     LegendNANA
10:00 4.2 0.2 75   LegendMM LegendMM LegendMM 98.29     LegendNANA
11:00 3.4 1.3 86   LegendMM LegendMM LegendMM 98.30     LegendNANA
12:00 3.1 1.6 90   LegendMM LegendMM LegendMM 98.23     LegendNANA
13:00 3.1 0.8 85   LegendMM LegendMM LegendMM 98.18     LegendNANA
14:00 3.5 0.0 78   LegendMM LegendMM LegendMM 98.19     LegendNANA
15:00 3.8 -1.4 69   LegendMM LegendMM LegendMM 98.22     LegendNANA
16:00
17:00 3.4 -1.3 71   LegendMM LegendMM LegendMM 98.27     LegendNANA
18:00 2.5 0.1 84   LegendMM LegendMM LegendMM 98.31     LegendNANA
19:00 2.6 -1.8 73   LegendMM LegendMM LegendMM 98.39     LegendNANA
20:00 2.4 -2.2 72   LegendMM LegendMM LegendMM 98.40     LegendNANA
21:00 2.2 -2.2 73   LegendMM LegendMM LegendMM 98.38     LegendNANA
22:00 2.1 -2.0 74   LegendMM LegendMM LegendMM 98.32     LegendNANA
23:00 1.8 -2.8 71   LegendMM LegendMM LegendMM 98.30     LegendNANA

Notes on Data Quality.

Legend

  • E = Estimated
  • M = Missing
  • NA = Not Available*
  • [empty] = Indicates an unobserved value
Date modified: